| time (UTC) | temp F | wind direction | speed knots | gust knots | rain 1hr in | rain 24hr in | rain mn in | humidity % | barometer mb |
| 20260901093021 | 68 | 0.0 | 0.9 | 0.00 | 0.14 | 0.10 | 84 | 1015.7 | |
| 20260901090016 | 68 | 0.0 | 0.9 | 0.05 | 0.14 | 0.10 | 84 | 1015.7 | |
| 20260901083016 | 68 | 0.0 | 0.0 | 0.05 | 0.14 | 0.10 | 84 | 1016.0 | |
| 20260901080016 | 68 | 0.0 | 0.0 | 0.00 | 0.09 | 0.05 | 84 | 1016.2 | |
| 20260901073016 | 68 | 0.0 | 0.0 | 0.00 | 0.09 | 0.05 | 84 | 1016.6 | |
| 20260901070016 | 68 | 0.0 | 0.9 | 0.00 | 0.09 | 0.05 | 84 | 1016.7 | |
| 20260901063016 | 68 | 0.0 | 0.9 | 0.02 | 0.09 | 0.05 | 83 | 1016.8 | |
| 20260901060017 | 68 | 0.0 | 0.9 | 0.02 | 0.09 | 0.05 | 83 | 1017.1 | |
| 20260901053021 | 68 | 0.0 | 0.0 | 0.02 | 0.07 | 0.03 | 83 | 1017.2 | |
| 20260901050018 | 68 | 0.0 | 0.0 | 0.03 | 0.07 | 0.03 | 83 | 1017.5 | |
| 20260901043016 | 68 | 0.0 | 0.0 | 0.02 | 0.05 | 0.01 | 83 | 1017.5 | |
| 20260901040015 | 68 | 0.0 | 0.9 | 0.01 | 0.04 | 0.04 | 82 | 1017.7 | |
| 20260901033017 | 68 | 0.0 | 0.0 | 0.01 | 0.03 | 0.03 | 82 | 1017.9 | |
| 20260901030036 | 68 | 0.0 | 0.0 | 0.01 | 0.03 | 0.03 | 82 | 1017.8 | |
| 20260901023016 | 68 | 0.0 | 0.0 | 0.00 | 0.02 | 0.02 | 81 | 1018.2 | |
| 20260901020035 | 68 | 0.0 | 0.9 | 0.00 | 0.03 | 0.02 | 80 | 1018.2 | |
| 20260901013117 | 68 | 0.0 | 0.0 | 0.01 | 0.03 | 0.02 | 79 | 1018.1 | |
| 20260901010057 | 68 | 0.0 | 0.0 | 0.01 | 0.03 | 0.02 | 78 | 1018.3 | |
| 20260901003015 | 68 | 0.0 | 0.0 | 0.00 | 0.02 | 0.01 | 76 | 1018.2 | |
| 20260901000015 | 68 | 0.0 | 0.0 | 0.00 | 0.02 | 0.01 | 76 | 1018.1 | |
| 20260831233016 | 68 | 0.0 | 0.0 | 0.00 | 0.02 | 0.01 | 75 | 1018.0 | |
| 20260831230016 | 68 | 0.0 | 0.0 | 0.00 | 0.02 | 0.01 | 74 | 1018.3 | |
| 20260831223016 | 69 | 0.0 | 3.5 | 0.00 | 0.02 | 0.01 | 74 | 1018.5 | |
| 20260831220015 | 71 | 0.0 | 2.6 | 0.00 | 0.02 | 0.01 | 71 | 1018.8 | |
| 20260831213015 | 73 | 0.0 | 0.0 | 0.00 | 0.02 | 0.01 | 73 | 1018.5 | |
| 20260831210016 | 73 | 0.0 | 0.0 | 0.00 | 0.02 | 0.01 | 72 | 1018.6 | |
| 20260831203015 | 74 | 0.0 | 0.0 | 0.01 | 0.02 | 0.01 | 70 | 1018.6 | |
| 20260831200015 | 74 | 0.0 | 0.9 | 0.01 | 0.02 | 0.01 | 70 | 1018.6 | |
| 20260831193035 | 76 | 0.0 | 1.7 | 0.00 | 0.01 | 0.00 | 62 | 1018.9 | |
| 20260831190017 | 76 | 0.0 | 2.6 | 0.00 | 0.01 | 0.00 | 60 | 1019.3 | |
| 20260831183019 | 77 | 225 | 0.9 | 3.5 | 0.00 | 0.01 | 0.00 | 61 | 1019.6 |
| 20260831180017 | 76 | 0.0 | 2.6 | 0.00 | 0.01 | 0.00 | 60 | 1019.7 | |
| 20260831173017 | 76 | 0.0 | 2.6 | 0.00 | 0.01 | 0.00 | 60 | 1020.1 | |
| 20260831170017 | 77 | 0.0 | 2.6 | 0.00 | 0.01 | 0.00 | 58 | 1020.2 | |
| 20260831163021 | 77 | 0.0 | 1.7 | 0.00 | 0.01 | 0.00 | 57 | 1020.4 | |
| 20260831160057 | 76 | 0.0 | 2.6 | 0.00 | 0.01 | 0.00 | 62 | 1020.6 | |
| 20260831153022 | 75 | 0.0 | 2.6 | 0.00 | 0.01 | 0.00 | 63 | 1020.8 | |
| 20260831150022 | 74 | 0.0 | 1.7 | 0.00 | 0.01 | 0.00 | 64 | 1020.7 | |
| 20260831143036 | 72 | 338 | 0.9 | 2.6 | 0.00 | 0.01 | 0.00 | 67 | 1020.9 |
| 20260831140037 | 72 | 68 | 0.9 | 2.6 | 0.00 | 0.01 | 0.00 | 68 | 1020.7 |
| 20260831133017 | 71 | 23 | 0.9 | 3.5 | 0.00 | 0.01 | 0.00 | 68 | 1020.7 |
| 20260831130017 | 70 | 0 | 0.9 | 1.7 | 0.00 | 0.01 | 0.00 | 69 | 1020.9 |
| 20260831123017 | 70 | 0.0 | 1.7 | 0.00 | 0.01 | 0.00 | 70 | 1020.7 | |
| 20260831120016 | 66 | 0.0 | 0.9 | 0.00 | 0.01 | 0.00 | 77 | 1020.6 | |
| 20260831113041 | 65 | 0.0 | 0.9 | 0.00 | 0.01 | 0.00 | 82 | 1020.5 | |
| 20260831110016 | 63 | 0.0 | 0.0 | 0.00 | 0.01 | 0.00 | 82 | 1020.2 | |
| 20260831103017 | 63 | 0.0 | 0.0 | 0.00 | 0.01 | 0.00 | 81 | 1019.9 | |
| 20260831100016 | 63 | 0.0 | 0.0 | 0.00 | 0.01 | 0.00 | 81 | 1019.7 |